Weather reports worldwide

Advertisment
South Newington, United Kingdom (99166): temperature & dewpoint: 11.10.2018 05:00:00 - 17.10.2018 05:00:00 (BST)South Newington, United Kingdom (99166): temperature -20cm & temperature -100cm: 11.10.2018 05:00:00 - 17.10.2018 05:00:00 (BST)South Newington, United Kingdom (99166): precipitation: 11.10.2018 05:00:00 - 17.10.2018 05:00:00 (BST)
Date & Time tt [°C] td [°C] tt -20cm [°C] tt -100cm [°C] rr [mm]
17.10.2018 05:00:00 - - - - -
17.10.2018 04:00:00 11,3 10,3 - - 0,0
17.10.2018 03:00:00 11,1 10,1 - - 0,0
17.10.2018 02:00:00 11,1 10,3 - - 0,0
17.10.2018 01:00:00 10,8 10,4 - - 0,0
17.10.2018 00:00:00 9,9 9,4 - - 0,0
16.10.2018 23:00:00 10,8 10,0 - - 0,0
16.10.2018 22:00:00 12,1 10,7 - - 0,0
16.10.2018 21:00:00 12,4 11,2 - - 0,0
16.10.2018 20:00:00 12,8 11,6 - - 0,0
16.10.2018 19:00:00 13,1 12,4 - - 0,0
16.10.2018 18:00:00 14,3 13,3 - - 0,0
16.10.2018 17:00:00 14,8 13,9 - - 0,0
16.10.2018 16:00:00 15,0 14,1 - - 0,0
16.10.2018 15:00:00 14,4 14,0 - - 0,0
16.10.2018 14:00:00 13,9 13,6 - - 0,0
16.10.2018 13:00:00 13,8 13,5 - - 0,0
16.10.2018 12:00:00 13,6 13,4 - - 0,0
16.10.2018 11:00:00 13,5 13,4 - - 0,0
16.10.2018 10:00:00 12,4 12,4 13,7 14,2 0,0
16.10.2018 09:00:00 11,9 11,8 - - 0,0
16.10.2018 08:00:00 11,7 11,6 - - 0,2
16.10.2018 07:00:00 11,8 11,7 - - 0,0
16.10.2018 06:00:00 11,7 11,7 - - 0,0
16.10.2018 05:00:00 11,5 11,4 - - 0,2
16.10.2018 04:00:00 11,3 11,2 - - 0,0
16.10.2018 03:00:00 11,3 11,1 - - 0,2
16.10.2018 02:00:00 11,2 11,1 - - 0,0
16.10.2018 01:00:00 11,1 11,0 - - 0,2
16.10.2018 00:00:00 11,1 10,9 - - 0,0
15.10.2018 23:00:00 11,1 10,8 - - 0,0
15.10.2018 22:00:00 11,0 10,6 - - 0,0
15.10.2018 21:00:00 10,8 10,5 - - 0,0
15.10.2018 20:00:00 10,7 10,4 - - 0,0
15.10.2018 19:00:00 10,8 10,4 - - 0,4
15.10.2018 18:00:00 10,9 10,3 - - 0,0
15.10.2018 17:00:00 10,9 10,2 - - 0,0
15.10.2018 16:00:00 10,9 10,1 - - 0,0
15.10.2018 15:00:00 10,7 10,0 - - 0,0
15.10.2018 14:00:00 10,6 10,1 - - 0,8
15.10.2018 13:00:00 10,5 10,0 - - 0,4
15.10.2018 12:00:00 10,2 9,6 - - 0,0
15.10.2018 11:00:00 9,6 9,2 - - 0,0
15.10.2018 10:00:00 9,3 8,9 14,0 14,2 0,2
15.10.2018 09:00:00 9,1 8,7 - - 0,0
15.10.2018 08:00:00 9,0 8,7 - - 0,6
15.10.2018 07:00:00 9,1 8,7 - - 0,2
15.10.2018 06:00:00 9,1 8,5 - - 0,2
15.10.2018 05:00:00 8,9 8,3 - - 0,2
15.10.2018 04:00:00 8,7 8,2 - - 0,6
15.10.2018 03:00:00 8,7 8,1 - - 0,0
15.10.2018 02:00:00 8,7 7,9 - - 0,0
15.10.2018 01:00:00 8,5 7,8 - - 0,8
15.10.2018 00:00:00 8,5 7,5 - - 0,0
14.10.2018 23:00:00 8,7 7,3 - - 0,0
14.10.2018 22:00:00 8,5 7,1 - - 0,0
14.10.2018 21:00:00 8,4 6,8 - - 0,2
14.10.2018 20:00:00 8,2 6,8 - - 0,0
14.10.2018 19:00:00 8,5 6,4 - - 0,0
14.10.2018 18:00:00 8,7 6,2 - - 0,0
14.10.2018 17:00:00 8,9 6,7 - - 0,0
14.10.2018 16:00:00 9,2 8,0 - - 0,0
14.10.2018 15:00:00 9,4 8,3 - - 0,2
14.10.2018 14:00:00 9,5 8,5 - - 1,6
14.10.2018 13:00:00 10,2 9,6 - - 1,2
14.10.2018 12:00:00 10,3 9,5 - - 3,0
14.10.2018 11:00:00 10,8 10,2 - - 3,8
14.10.2018 10:00:00 10,9 10,2 14,7 14,2 3,4
14.10.2018 09:00:00 11,2 10,6 - - 4,8
14.10.2018 08:00:00 11,8 11,2 - - 1,6
14.10.2018 07:00:00 12,0 11,4 - - 2,2
14.10.2018 06:00:00 12,4 11,7 - - 0,6
14.10.2018 05:00:00 12,7 11,7 - - 0,2
14.10.2018 04:00:00 12,8 11,5 - - 0,0
14.10.2018 03:00:00 13,3 11,8 - - 0,0
14.10.2018 02:00:00 14,6 13,3 - - 0,0
14.10.2018 01:00:00 15,1 14,0 - - 0,6
14.10.2018 00:00:00 16,0 14,0 - - 0,0
13.10.2018 23:00:00 16,8 15,6 - - 0,8
13.10.2018 22:00:00 18,5 15,2 - - 0,0
13.10.2018 21:00:00 18,7 14,9 - - 0,0
13.10.2018 20:00:00 19,4 14,9 - - 0,0
13.10.2018 19:00:00 20,0 14,9 - - 0,0
13.10.2018 18:00:00 20,6 14,6 - - 0,0
13.10.2018 17:00:00 21,0 14,7 - - 0,0
13.10.2018 16:00:00 21,7 14,4 - - 0,0
13.10.2018 15:00:00 21,7 14,7 - - 0,0
13.10.2018 14:00:00 21,8 14,2 - - 0,0
13.10.2018 13:00:00 21,9 15,5 - - -
13.10.2018 12:00:00 20,3 16,0 - - 0,2
13.10.2018 11:00:00 19,0 16,4 - - 0,0
13.10.2018 10:00:00 17,6 16,0 14,0 14,2 0,2
13.10.2018 09:00:00 18,0 14,7 - - 0,2
13.10.2018 08:00:00 17,2 15,2 - - 0,2
13.10.2018 07:00:00 17,8 15,5 - - 0,2
13.10.2018 06:00:00 17,0 15,9 - - 0,4
13.10.2018 05:00:00 16,8 16,0 - - 0,4
13.10.2018 04:00:00 16,7 15,8 - - 0,2
13.10.2018 03:00:00 16,9 15,9 - - 0,2
13.10.2018 02:00:00 17,0 15,9 - - 0,0
13.10.2018 01:00:00 17,6 15,9 - - 0,0
13.10.2018 00:00:00 17,9 15,8 - - 0,2
12.10.2018 23:00:00 18,1 15,6 - - 0,0
12.10.2018 22:00:00 18,3 14,8 - - 0,0
12.10.2018 21:00:00 18,0 14,6 - - 0,0
12.10.2018 20:00:00 18,0 14,7 - - 0,0
12.10.2018 19:00:00 17,6 14,8 - - 0,0
12.10.2018 18:00:00 18,4 14,3 - - 0,0
12.10.2018 17:00:00 18,2 13,8 - - 0,0
12.10.2018 16:00:00 18,1 13,3 - - 0,0
12.10.2018 15:00:00 17,9 13,2 - - 0,0
12.10.2018 14:00:00 17,2 12,9 - - 0,2
12.10.2018 13:00:00 15,1 13,4 - - 2,2
12.10.2018 12:00:00 15,5 13,3 - - 0,6
12.10.2018 11:00:00 14,6 13,5 - - 1,6
12.10.2018 10:00:00 15,1 13,1 13,7 14,2 0,0
12.10.2018 09:00:00 14,7 12,5 - - 0,4
12.10.2018 08:00:00 14,4 12,2 - - 0,4
12.10.2018 07:00:00 14,0 11,6 - - 0,0
12.10.2018 06:00:00 14,0 11,5 - - 0,0
12.10.2018 05:00:00 12,8 10,6 - - 0,0
12.10.2018 04:00:00 12,7 10,3 - - 0,0
12.10.2018 03:00:00 12,7 10,2 - - 0,0
12.10.2018 02:00:00 12,2 10,6 - - 0,0
12.10.2018 01:00:00 11,3 10,4 - - 0,0
12.10.2018 00:00:00 11,3 10,1 - - 0,0
11.10.2018 23:00:00 12,3 10,8 - - 0,0
11.10.2018 22:00:00 13,6 10,9 - - 0,0
11.10.2018 21:00:00 14,4 11,6 - - 0,0
11.10.2018 20:00:00 14,8 11,3 - - 0,0
11.10.2018 19:00:00 16,3 11,6 - - 0,0
11.10.2018 18:00:00 17,1 13,4 - - 0,0
11.10.2018 17:00:00 17,6 13,1 - - 0,0
11.10.2018 16:00:00 18,0 12,8 - - 0,0
11.10.2018 15:00:00 19,1 13,2 - - 0,0
11.10.2018 14:00:00 18,3 12,6 - - 0,0
11.10.2018 13:00:00 18,3 12,2 - - 0,0
11.10.2018 12:00:00 18,5 12,1 - - 0,0
11.10.2018 11:00:00 16,5 12,7 - - 0,0
11.10.2018 10:00:00 16,1 13,0 13,2 14,2 0,0
11.10.2018 09:00:00 14,6 12,5 - - 0,0
11.10.2018 08:00:00 13,9 12,3 - - 0,0
11.10.2018 07:00:00 13,9 13,3 - - 0,0
11.10.2018 06:00:00 13,6 13,4 - - 0,0
11.10.2018 05:00:00 10,4 9,9 - - 0,0

tt = temperature
td = dewpoint
tt -20cm = temperature -20cm
tt -100cm = temperature -100cm
rr = precipitation

Next stations